Location: Burera
(21.3780°N, 81.9534°E)
Time: 12:40:02
(UTC+00:00)

Meteosat 1 Rocket2 - Pass Details

Date: 13 August 2020
Orbit: 485 x 2306 km, 28.3° (Epoch: 22 September)

Event Time Altitude Azimuth Distance (km) Brightness Sun altitude
Exits shadow 22:23:01 41° 287° (WNW) 1,355 4.4 -24.1°
Maximum altitude 22:25:00 59° 343° (NNW) 1,001 4.0 -23.7°
Drops below altitude 10° 22:29:50 10° 63° (ENE) 2,114 6.9 -22.6°
Sets 22:31:51 0° 68° (ENE) 2,876 8.0 -22.2°
